User: anonymous   Login
Location: Unspecified
(0.0000°N, 0.0000°E)
Time: 06:08:10
(UTC+01:00)
Language:

Meteor 1-10 Rocket - Orbit

View from above orbital plane
View from above orbital plane
View from above satellite
View from above satellite

Ground track
Ground track

The orbit data is extracted from the following two-line orbital elements,

1 05732U 71120B   14327.10093719  .00000060  00000-0  28238-4 0  4252
2 05732 081.2508 308.2867 0052322 156.2694 273.3049 14.05845764207263
Epoch (UTC): 23 November 2014 02:25:20
Eccentricity: 0.0052322
inclination: 81.2508°
perigee height: 835 km
apogee height: 911 km
right ascension of ascending node: 308.2867°
argument of perigee: 156.2694°
revolutions per day: 14.05845764
mean anomaly at epoch: 273.3049°
orbit number at epoch: 20726

The dashed part of the orbit path shows where the satellite is in the earth's shadow,  

DLR